When you browse on this site, cookies collect data to enhance your experience and personalize the content and advertising you see.
Visit our Privacy Policy to learn more. By continuing to use the site, you agree to this use of cookies and data.

Météo par heure à Karlsruhe

Ce jour, 21 Septembre, Lundi

Heure Température Précipitation Vent Pression Humidité
00:00 +16°C° 0 mm 1 m/s 750 mmHg 71%
01:00 +15°C° 0 mm 1 m/s 751 mmHg 72%
02:00 +15°C° 0 mm 1 m/s 751 mmHg 74%
03:00 +14°C° 0 mm 1 m/s 750 mmHg 76%
04:00 +14°C° 0 mm 1 m/s 750 mmHg 78%
05:00 +14°C° 0 mm 1 m/s 751 mmHg 78%
06:00 +14°C° 0 mm 1 m/s 751 mmHg 78%
07:00 +14°C° 0 mm 1 m/s 751 mmHg 78%
08:00 +18°C° 0 mm 1 m/s 751 mmHg 70%
09:00 +20°C° 0 mm 1 m/s 751 mmHg 62%
10:00 +22°C° 0 mm 1 m/s 751 mmHg 54%
11:00 +24°C° 0 mm 1 m/s 750 mmHg 51%
12:00 +25°C° 0 mm 1 m/s 750 mmHg 47%
13:00 +27°C° 0 mm 1 m/s 750 mmHg 44%
14:00 +27°C° 0 mm 1 m/s 750 mmHg 44%
15:00 +27°C° 0 mm 1 m/s 750 mmHg 43%
16:00 +27°C° 0 mm 1 m/s 750 mmHg 43%
17:00 +25°C° 0 mm 1 m/s 749 mmHg 49%
18:00 +22°C° 0 mm 1 m/s 749 mmHg 55%
19:00 +20°C° 0 mm 1 m/s 749 mmHg 61%
20:00 +20°C° 0 mm 1 m/s 749 mmHg 63%
21:00 +19°C° 0 mm 1 m/s 749 mmHg 66%
22:00 +16°C° 0 mm 0 m/s 750 mmHg 68%
23:00 +16°C° 0 mm 0 m/s 750 mmHg 69%

Demain, 22 Septembre, Mardi

Heure Température Précipitation Vent Pression Humidité
00:00 +16°C° 0 mm 0 m/s 749 mmHg 71%
01:00 +15°C° 0 mm 0 m/s 749 mmHg 72%
02:00 +15°C° 0 mm 0 m/s 749 mmHg 75%
03:00 +15°C° 0 mm 0 m/s 749 mmHg 77%
04:00 +15°C° 0 mm 0 m/s 749 mmHg 80%
05:00 +15°C° 0 mm 0 m/s 749 mmHg 81%
06:00 +15°C° 0 mm 0 m/s 749 mmHg 81%
07:00 +16°C° 0 mm 1 m/s 749 mmHg 82%
08:00 +19°C° 0 mm 1 m/s 749 mmHg 74%
09:00 +21°C° 0 mm 1 m/s 748 mmHg 65%
10:00 +24°C° 0 mm 1 m/s 748 mmHg 57%
11:00 +25°C° 0 mm 1 m/s 748 mmHg 51%
12:00 +27°C° 0 mm 2 m/s 748 mmHg 46%
13:00 +28°C° 0 mm 2 m/s 747 mmHg 40%
14:00 +28°C° 0 mm 2 m/s 747 mmHg 40%
15:00 +28°C° 0 mm 2 m/s 746 mmHg 40%
16:00 +28°C° 0 mm 2 m/s 746 mmHg 40%
17:00 +26°C° 0 mm 1 m/s 746 mmHg 47%
18:00 +24°C° 0 mm 1 m/s 746 mmHg 53%
19:00 +22°C° 0 mm 1 m/s 745 mmHg 60%
20:00 +22°C° 0.1 mm 1 m/s 745 mmHg 62%
21:00 +21°C° 0.1 mm 1 m/s 746 mmHg 65%
22:00 +20°C° 0.1 mm 1 m/s 746 mmHg 68%
23:00 +20°C° 0.3 mm 1 m/s 746 mmHg 71%

Après-demain, 23 Septembre, Mercredi

Heure Température Précipitation Vent Pression Humidité
00:00 +19°C° 0.3 mm 1 m/s 746 mmHg 75%
01:00 +19°C° 0.3 mm 1 m/s 746 mmHg 78%
02:00 +18°C° 0.5 mm 2 m/s 746 mmHg 82%
03:00 +17°C° 0.5 mm 2 m/s 746 mmHg 86%
04:00 +17°C° 0.5 mm 2 m/s 746 mmHg 89%
05:00 +17°C° 0 mm 2 m/s 746 mmHg 90%
06:00 +17°C° 0 mm 2 m/s 746 mmHg 90%
07:00 +16°C° 0 mm 3 m/s 746 mmHg 91%
08:00 +18°C° 0 mm 3 m/s 746 mmHg 85%
09:00 +19°C° 0 mm 3 m/s 746 mmHg 78%
10:00 +21°C° 0 mm 3 m/s 746 mmHg 72%
11:00 +22°C° 0.4 mm 3 m/s 746 mmHg 70%
12:00 +22°C° 0.4 mm 3 m/s 746 mmHg 68%
13:00 +24°C° 0.4 mm 3 m/s 746 mmHg 66%
14:00 +24°C° 0.6 mm 3 m/s 745 mmHg 67%
15:00 +24°C° 0.6 mm 3 m/s 745 mmHg 68%
16:00 +22°C° 0.6 mm 3 m/s 745 mmHg 70%
17:00 +21°C° 0.1 mm 2 m/s 745 mmHg 75%
18:00 +19°C° 0.1 mm 2 m/s 745 mmHg 80%
19:00 +19°C° 0.1 mm 1 m/s 745 mmHg 85%
20:00 +18°C° 0 mm 2 m/s 745 mmHg 86%
21:00 +17°C° 0 mm 2 m/s 745 mmHg 88%
22:00 +17°C° 0 mm 2 m/s 745 mmHg 89%
23:00 +17°C° 0 mm 2 m/s 745 mmHg 89%

24 Septembre, Jeudi

Heure Température Précipitation Vent Pression Humidité
00:00 +17°C° 0 mm 2 m/s 745 mmHg 89%
01:00 +16°C° 0 mm 2 m/s 744 mmHg 88%
02:00 +17°C° 0.1 mm 3 m/s 744 mmHg 87%
03:00 +17°C° 0.1 mm 3 m/s 744 mmHg 85%
04:00 +17°C° 0.1 mm 3 m/s 744 mmHg 83%
05:00 +17°C° 0.1 mm 3 m/s 744 mmHg 84%
06:00 +17°C° 0.1 mm 3 m/s 745 mmHg 85%
07:00 +17°C° 0.1 mm 3 m/s 745 mmHg 86%
08:00 +18°C° 0.1 mm 4 m/s 745 mmHg 82%
09:00 +19°C° 0.1 mm 4 m/s 746 mmHg 77%
10:00 +20°C° 0.1 mm 5 m/s 746 mmHg 72%
11:00 +20°C° 0.3 mm 4 m/s 746 mmHg 74%
12:00 +20°C° 0.3 mm 4 m/s 746 mmHg 75%
13:00 +19°C° 0.3 mm 3 m/s 745 mmHg 77%
14:00 +19°C° 0.5 mm 3 m/s 745 mmHg 78%
15:00 +19°C° 0.5 mm 3 m/s 745 mmHg 80%
16:00 +19°C° 0.5 mm 2 m/s 745 mmHg 81%
17:00 +18°C° 0.5 mm 2 m/s 745 mmHg 85%
18:00 +17°C° 0.5 mm 2 m/s 745 mmHg 88%
19:00 +16°C° 0.5 mm 2 m/s 744 mmHg 91%
20:00 +16°C° 1.4 mm 2 m/s 744 mmHg 92%
21:00 +16°C° 1.4 mm 2 m/s 744 mmHg 93%
22:00 +16°C° 1.4 mm 3 m/s 744 mmHg 93%
23:00 +16°C° 1 mm 3 m/s 744 mmHg 93%

25 Septembre, Vendredi

Heure Température Précipitation Vent Pression Humidité
00:00 +16°C° 1 mm 3 m/s 744 mmHg 93%
01:00 +14°C° 1 mm 3 m/s 744 mmHg 92%
02:00 +14°C° 1 mm 3 m/s 744 mmHg 89%
03:00 +13°C° 1 mm 3 m/s 744 mmHg 86%
04:00 +13°C° 1 mm 4 m/s 744 mmHg 83%
05:00 +12°C° 0.1 mm 4 m/s 744 mmHg 83%
06:00 +11°C° 0.1 mm 4 m/s 745 mmHg 83%
07:00 +11°C° 0.1 mm 4 m/s 745 mmHg 83%
08:00 +11°C° 0 mm 4 m/s 745 mmHg 76%
09:00 +12°C° 0 mm 5 m/s 746 mmHg 69%
10:00 +12°C° 0 mm 5 m/s 746 mmHg 62%
11:00 +13°C° 0 mm 5 m/s 746 mmHg 57%
12:00 +13°C° 0 mm 5 m/s 745 mmHg 53%
13:00 +14°C° 0 mm 5 m/s 745 mmHg 48%
14:00 +14°C° 0 mm 4 m/s 745 mmHg 47%
15:00 +14°C° 0 mm 4 m/s 744 mmHg 46%
16:00 +14°C° 0 mm 4 m/s 744 mmHg 45%
17:00 +13°C° 0.1 mm 4 m/s 744 mmHg 47%
18:00 +13°C° 0.1 mm 3 m/s 745 mmHg 49%
19:00 +12°C° 0.1 mm 3 m/s 745 mmHg 52%
20:00 +11°C° 0 mm 3 m/s 745 mmHg 56%
21:00 +10°C° 0 mm 4 m/s 746 mmHg 60%
22:00 +8°C° 0 mm 4 m/s 746 mmHg 64%
23:00 +7°C° 0.5 mm 4 m/s 746 mmHg 72%

26 Septembre, Samedi

Heure Température Précipitation Vent Pression Humidité
00:00 +7°C° 0.5 mm 4 m/s 746 mmHg 80%
01:00 +7°C° 0.5 mm 5 m/s 746 mmHg 87%
02:00 +7°C° 0 mm 5 m/s 746 mmHg 87%
03:00 +7°C° 0 mm 5 m/s 746 mmHg 87%
04:00 +6°C° 0 mm 5 m/s 745 mmHg 87%
05:00 +6°C° 0.2 mm 5 m/s 745 mmHg 86%
06:00 +5°C° 0.2 mm 6 m/s 745 mmHg 85%
07:00 +5°C° 0.2 mm 6 m/s 746 mmHg 84%
08:00 +6°C° 0 mm 7 m/s 746 mmHg 79%
09:00 +8°C° 0 mm 7 m/s 746 mmHg 75%
10:00 +7°C° 0 mm 8 m/s 746 mmHg 70%
11:00 +7°C° 0 mm 8 m/s 746 mmHg 68%
12:00 +9°C° 0 mm 8 m/s 746 mmHg 66%
13:00 +9°C° 0 mm 8 m/s 746 mmHg 64%
14:00 +9°C° 0.2 mm 8 m/s 746 mmHg 64%
15:00 +9°C° 0.2 mm 7 m/s 746 mmHg 64%
16:00 +9°C° 0.2 mm 7 m/s 746 mmHg 64%
17:00 +9°C° 0 mm 6 m/s 746 mmHg 63%
18:00 +8°C° 0 mm 5 m/s 747 mmHg 62%
19:00 +8°C° 0 mm 4 m/s 747 mmHg 61%
20:00 +8°C° 0.1 mm 4 m/s 747 mmHg 62%
21:00 +8°C° 0 mm 4 m/s 747 mmHg 62%
22:00 +8°C° 0 mm 4 m/s 747 mmHg 63%
23:00 +7°C° 0.2 mm 4 m/s 747 mmHg 64%
Voir plus